This demonstration page uses our WeatherBlox Daily Observations layout. Learn more.

Left ArrowRight Arrow

Hourly Observations for July 8, 2018

Temp ( °F °C ) Dew Point ( °F °C ) Humidity (%) Winds ( mph kmh ) Pressure ( in mb ) Visibility ( mi km ) Precip ( " mm )
12:53 am 00:53 Clear 74 23.3 64 17.8 71 71 SSE 12 19 30.12 1020 10 16 0.00 0.00
1:53 am 01:53 Clear 72 22.2 63 17.2 73 73 SSE 10 17 30.12 1020 10 16 0.00 0.00
2:53 am 02:53 Clear 71 21.7 63 17.2 76 76 SSE 10 17 30.11 1020 10 16 0.00 0.00
3:53 am 03:53 Clear 69 20.6 64 17.8 84 84 S 7 11 30.12 1020 10 16 0.00 0.00
4:53 am 04:53 Clear 69 20.6 64 17.8 84 84 S 7 11 30.12 1020 10 16 0.00 0.00
5:53 am 05:53 Clear 68 20 64 17.8 87 87 S 7 11 30.12 1020 10 16 0.00 0.00
6:53 am 06:53 Sunny 67 19.4 64 17.8 91 91 S 7 11 30.13 1020 10 16 0.00 0.00
7:53 am 07:53 Sunny 69 20.6 64 17.8 84 84 S 7 11 30.14 1021 10 16 0.00 0.00
8:53 am 08:53 Sunny 73 22.8 65 18.3 76 76 S 10 17 30.12 1020 10 16 0.00 0.00
9:53 am 09:53 Sunny 77 25 67 19.4 71 71 SSW 9 15 30.13 1020 10 16 0.00 0.00
10:53 am 10:53 Sunny 81 27.2 69 20.6 67 67 S 10 17 30.11 1020 10 16 0.00 0.00
11:53 am 11:53 Sunny 83 28.3 70 21.1 65 65 S 9 15 30.11 1020 10 16 0.00 0.00
12:53 pm 12:53 Sunny 86 30 69 20.6 57 57 S 12 19 30.11 1020 10 16 0.00 0.00
1:53 pm 13:53 Sunny 87 30.6 68 20 53 53 S 12 19 30.10 1019 10 16 0.00 0.00
2:53 pm 14:53 Sunny 88 31.1 66 18.9 48 48 S 12 19 30.10 1019 10 16 0.00 0.00
3:53 pm 15:53 Sunny 89 31.7 64 17.8 43 43 S 12 19 30.08 1019 10 16 0.00 0.00
4:53 pm 16:53 Sunny 89 31.7 64 17.8 43 43 SSE 15 24 30.07 1018 10 16 0.00 0.00
5:53 pm 17:53 Sunny 89 31.7 64 17.8 43 43 S 10 17 30.07 1018 10 16 0.00 0.00
6:53 pm 18:53 Sunny 88 31.1 63 17.2 43 43 SSE 9 15 30.07 1018 10 16 0.00 0.00
7:53 pm 19:53 Sunny 86 30 64 17.8 48 48 SSE 9 15 30.06 1018 10 16 0.00 0.00
8:53 pm 20:53 Sunny 83 28.3 64 17.8 53 53 SE 9 15 30.07 1018 10 16 0.00 0.00
9:53 pm 21:53 Clear 80 26.7 65 18.3 60 60 SSE 7 11 30.08 1019 10 16 0.00 0.00
10:53 pm 22:53 Clear 77 25 66 18.9 69 69 SSE 8 13 30.10 1019 10 16 0.00 0.00
11:53 pm 23:53 Clear 75 23.9 66 18.9 74 74 SSE 7 11 30.10 1019 10 16 0.00 0.00

Powered by AerisWeather